Date,TemperatureHighF,TemperatureAvgF,TemperatureLowF,DewpointHighF,DewpointAvgF,DewpointLowF,HumidityHigh,HumidityAvg,HumidityLow,PressureMaxIn,PressureMinIn,WindSpeedMaxMPH,WindSpeedAvgMPH,GustSpeedMaxMPH,PrecipitationSumIn
2013-11-1,77.0,61.4,51.4,54.0,46.3,41.5,97,61,34,29.88,29.74,13,4,13,0.08
2013-11-2,60.8,54.2,48.7,53.9,49.0,40.1,98,84,49,29.76,29.65,23,8,25,0.08
2013-11-3,68.4,55.1,48.9,47.8,41.6,34.5,89,63,31,29.79,29.68,13,5,13,0.08
2013-11-4,68.0,57.8,45.5,44.9,38.8,33.0,89,52,34,29.79,29.68,15,5,15,0.08
2013-11-5,77.5,61.8,52.5,49.2,38.4,31.2,84,45,21,29.94,29.79,15,5,15,0.08
2013-11-6,76.6,62.2,51.8,49.8,40.5,36.2,88,48,28,29.97,29.88,12,3,12,0.08
2013-11-7,81.9,59.9,53.1,54.2,41.7,35.4,98,54,31,29.91,29.79,20,4,20,0.00
2013-11-8,78.8,56.7,48.7,59.0,50.4,43.4,98,82,41,29.82,29.68,19,6,20,0.00
2013-11-9,81.9,56.7,47.8,55.1,49.8,43.8,98,82,35,29.79,29.68,18,5,18,0.00
2013-11-10,70.0,55.3,49.5,54.4,50.5,47.7,98,86,51,29.88,29.79,14,5,14,0.00
2013-11-11,71.4,57.2,51.6,53.8,50.4,47.4,96,79,49,29.91,29.82,13,4,13,0.00
2013-11-12,75.7,60.9,55.0,54.9,49.9,44.8,98,69,41,30.00,29.91,15,5,15,0.00
2013-11-13,78.8,57.0,51.6,60.5,53.1,49.7,98,89,45,30.00,29.82,24,7,24,0.00
2013-11-14,61.0,52.4,51.3,56.1,51.0,45.1,98,95,72,29.88,29.62,25,6,25,0.00
2013-11-15,69.8,54.5,48.7,50.1,46.7,39.9,95,78,43,29.62,29.47,25,8,25,0.00
2013-11-16,68.2,53.8,47.5,52.2,47.6,41.6,98,82,43,29.68,29.50,23,8,23,0.00
2013-11-17,64.4,53.6,48.9,50.7,47.4,41.7,98,81,49,29.85,29.68,15,6,15,0.00
2013-11-18,65.5,52.7,45.9,50.0,47.4,42.1,98,83,50,29.91,29.79,13,4,13,0.00
2013-11-19,60.8,55.8,52.3,56.3,52.4,47.2,98,89,71,29.88,29.71,9,2,10,0.37
2013-11-20,62.6,55.6,51.1,59.5,54.5,48.8,98,96,76,29.71,29.56,17,5,17,0.83
2013-11-21,63.1,56.1,50.0,51.1,34.9,2.3,98,54,9,29.74,29.62,28,10,28,0.08
2013-11-22,72.7,62.4,56.7,35.8,-4.1,-14.5,41,9,3,29.79,29.62,26,11,26,0.04
2013-11-23,75.2,58.8,49.3,51.7,30.5,-20.0,95,45,2,29.85,29.71,23,6,23,0.00
2013-11-24,71.6,54.9,46.4,50.7,45.3,39.9,98,73,35,29.97,29.85,10,2,10,0.00
2013-11-25,70.7,53.6,45.9,48.5,45.4,39.7,98,78,37,30.03,29.97,8,3,8,0.00
2013-11-26,66.4,58.3,52.2,44.3,40.0,38.0,74,52,39,29.88,29.79,11,4,11,0.00
2013-11-27,73.6,56.3,47.5,48.5,44.4,40.3,91,66,39,29.79,29.56,10,2,10,0.00
2013-11-28,78.1,58.3,50.2,49.1,43.6,37.1,91,61,33,29.82,29.59,13,4,13,0.00
2013-11-29,77.0,57.1,48.4,52.8,47.9,40.2,98,75,32,29.97,29.82,19,4,19,0.00
2013-11-30,70.7,54.0,46.6,59.2,48.8,45.7,98,85,45,30.03,29.94,14,4,14,0.00